User: anonymous
Location: Unspecified
(0.0000°N, 0.0000°E)
Time: 00:26:32
(UTC+02:00)
Language:

Cosmos 1980 Rocket - Orbit

View from above orbital plane
View from above orbital plane
View from above satellite
View from above satellite

Ground track
Ground track

The orbit data is extracted from the following two-line orbital elements,

1 19650U 88102B   14213.16671499  .00000318  00000-0  18638-3 0  3438
2 19650 070.9998 064.9645 0015232 334.9529 164.4881 14.15666858327247
Epoch (UTC): 01 August 2014 04:00:04
Eccentricity: 0.0015232
inclination: 70.9998°
perigee height: 829 km
apogee height: 851 km
right ascension of ascending node: 64.9645°
argument of perigee: 334.9529°
revolutions per day: 14.15666858
mean anomaly at epoch: 164.4881°
orbit number at epoch: 32724

The dashed part of the orbit path shows where the satellite is in the earth's shadow,  

DLR